Weather History for KSTE - April, 2013

Change the Weather History Date:

Tuesday, April 2, 2013

  Actual Average Record
Temperature  
Mean Temperature 24 °F -  
Max Temperature 32 °F 46 °F 78 °F (1963)
Min Temperature 17 °F 27 °F 14 °F (1971)
Degree Days  
Heating Degree Days 40    
Moisture  
Dew Point 11 °F    
Average Humidity 55    
Maximum Humidity 73    
Minimum Humidity 39    
Precipitation  
Precipitation 0.00 in - - ()
Sea Level Pressure  
Sea Level Pressure 30.21 in    
Wind  
Wind Speed 6 mph (West)    
Max Wind Speed 15 mph    
Max Gust Speed 24 mph    
Visibility 10 miles    
Events      
Averages and records for this station are not official NWS values.
T = Trace of Precipitation, MM = Missing Value Source: NWS Daily Summary

Daily Weather History Graph

Daily Weather History Graph

Search for Another Location

Airport or City:

Trip Planner

Search our weather history database for the weather conditions in past years. The results will help you decide how hot, cold, wet, or windy it might be!

Date:

Astronomy

Apr. 02, 2013 Rise Set
Actual Time 6:36 AM CDT 7:27 PM CDT
Civil Twilight 6:07 AM CDT 7:56 PM CDT
Nautical Twilight 5:32 AM CDT 8:31 PM CDT
Astronomical Twilight 4:55 AM CDT 9:08 PM CDT
Moon 1:41 AM CDT (4/2) 11:18 AM CDT (4/2)
Length of Visible Light 13h 49m
Length of Day
12h 50m
Waning Gibbous, 55% of the Moon is Illuminated
Apr 2
Waning Gibbous
Apr 2
Last Quarter
Apr 10
New
Apr 18
First Quarter
Apr 25
Full

Hourly Weather History & Observations

Time (CDT) Temp. Windchill Dew Point Humidity Pressure Visibility Wind Dir Wind Speed Gust Speed Precip Events Conditions
12:15 AM 22.8 °F 15.5 °F 11.8 °F 63% 30.13 in 10.0 mi West 5.8 mph - N/A   Clear
12:35 AM 22.5 °F 16.3 °F 11.7 °F 63% 30.14 in 10.0 mi West 4.6 mph - N/A   Clear
12:55 AM 22.1 °F 15.9 °F 11.7 °F 64% 30.14 in 10.0 mi West 4.6 mph - N/A   Clear
1:15 AM 21.9 °F 15.7 °F 11.7 °F 65% 30.15 in 10.0 mi West 4.6 mph - N/A   Clear
1:35 AM 21.6 °F 14.0 °F 11.7 °F 66% 30.15 in 10.0 mi West 5.8 mph - N/A   Clear
1:55 AM 21.6 °F 16.8 °F 11.7 °F 66% 30.15 in 10.0 mi West 3.5 mph - N/A   Clear
2:15 AM 21.0 °F 13.4 °F 11.3 °F 66% 30.15 in 10.0 mi West 5.8 mph - N/A   Clear
2:35 AM 20.8 °F 16.0 °F 11.3 °F 67% 30.15 in 10.0 mi West 3.5 mph - N/A   Clear
2:55 AM 20.5 °F 15.6 °F 11.3 °F 68% 30.15 in 10.0 mi West 3.5 mph - N/A   Clear
3:15 AM 20.1 °F 15.2 °F 11.3 °F 69% 30.15 in 10.0 mi West 3.5 mph - N/A   Clear
3:35 AM 19.9 °F 14.9 °F 11.3 °F 69% 30.15 in 10.0 mi West 3.5 mph - N/A   Clear
3:55 AM 19.4 °F 14.3 °F 11.1 °F 70% 30.16 in 10.0 mi West 3.5 mph - N/A   Clear
4:15 AM 19.4 °F 12.8 °F 10.9 °F 70% 30.16 in 10.0 mi West 4.6 mph - N/A   Clear
4:35 AM 18.9 °F 12.1 °F 10.6 °F 70% 30.16 in 10.0 mi West 4.6 mph - N/A   Clear
4:55 AM 18.5 °F - 10.4 °F 71% 30.16 in 10.0 mi Calm Calm - N/A   Clear
5:15 AM 18.1 °F 11.3 °F 10.4 °F 72% 30.16 in 10.0 mi West 4.6 mph - N/A   Clear
5:35 AM 18.0 °F 9.8 °F 10.4 °F 72% 30.17 in 10.0 mi West 5.8 mph - N/A   Clear
5:55 AM 18.0 °F 11.1 °F 10.4 °F 72% 30.17 in 10.0 mi WNW 4.6 mph - N/A   Clear
6:15 AM 17.6 °F 12.3 °F 10.0 °F 72% 30.17 in 10.0 mi West 3.5 mph - N/A   Clear
6:35 AM 17.2 °F 10.2 °F 9.9 °F 73% 30.18 in 10.0 mi West 4.6 mph - N/A   Clear
6:55 AM 17.4 °F 10.4 °F 9.9 °F 72% 30.18 in 10.0 mi West 4.6 mph - N/A   Clear
7:15 AM 17.6 °F 12.3 °F 10.0 °F 72% 30.19 in 10.0 mi West 3.5 mph - N/A   Clear
7:35 AM 18.5 °F 10.4 °F 9.9 °F 69% 30.20 in 10.0 mi West 5.8 mph - N/A   Clear
7:55 AM 19.4 °F 9.5 °F 9.5 °F 65% 30.21 in 10.0 mi WNW 8.1 mph - N/A   Clear
8:15 AM 20.3 °F 13.8 °F 9.3 °F 63% 30.21 in 10.0 mi West 4.6 mph - N/A   Clear
8:35 AM 21.2 °F 13.6 °F 9.3 °F 60% 30.22 in 10.0 mi WNW 5.8 mph - N/A   Clear
8:55 AM 22.1 °F 13.7 °F 9.3 °F 58% 30.22 in 10.0 mi NW 6.9 mph - N/A   Clear
9:15 AM 23.0 °F 14.7 °F 9.5 °F 56% 30.22 in 10.0 mi WNW 6.9 mph - N/A   Clear
9:35 AM 23.9 °F 15.0 °F 9.9 °F 55% 30.22 in 10.0 mi NW 8.1 mph - N/A   Clear
9:55 AM 24.8 °F 16.1 °F 10.0 °F 54% 30.22 in 10.0 mi West 8.1 mph - N/A   Clear
10:15 AM 25.3 °F 17.6 °F 10.8 °F 54% 30.22 in 10.0 mi WSW 6.9 mph - N/A   Clear
10:35 AM 25.7 °F 18.0 °F 10.4 °F 52% 30.22 in 10.0 mi West 6.9 mph - N/A   Clear
10:55 AM 27.0 °F 21.6 °F 10.6 °F 50% 30.22 in 10.0 mi WSW 4.6 mph - N/A   Clear
11:15 AM 27.9 °F 19.8 °F 11.5 °F 50% 30.22 in 10.0 mi West 8.1 mph - N/A   Clear
11:35 AM 28.4 °F 19.1 °F 9.7 °F 46% 30.22 in 10.0 mi West 10.4 mph 16.1 mph N/A   Clear
11:55 AM 28.9 °F 19.8 °F 11.3 °F 48% 30.22 in 10.0 mi West 10.4 mph - N/A   Scattered Clouds
12:15 PM 28.8 °F 19.0 °F 10.4 °F 46% 30.21 in 10.0 mi West 11.5 mph 19.6 mph N/A   Scattered Clouds
12:35 PM 28.9 °F 18.2 °F 11.3 °F 48% 30.21 in 10.0 mi West 13.8 mph 20.7 mph N/A   Scattered Clouds
12:55 PM 30.0 °F 21.1 °F 11.7 °F 46% 30.21 in 10.0 mi West 10.4 mph 17.3 mph N/A   Clear
1:15 PM 30.2 °F 21.3 °F 10.4 °F 44% 30.21 in 10.0 mi West 10.4 mph 18.4 mph N/A   Scattered Clouds
1:35 PM 30.4 °F 19.5 °F 7.9 °F 39% 30.21 in 10.0 mi NW 15.0 mph 24.2 mph N/A   Clear
1:55 PM 30.2 °F 21.3 °F 8.4 °F 40% 30.21 in 10.0 mi West 10.4 mph 21.9 mph N/A   Clear
2:15 PM 30.9 °F 22.2 °F 9.0 °F 40% 30.21 in 10.0 mi WNW 10.4 mph 17.3 mph N/A   Clear
2:35 PM 30.9 °F 22.2 °F 9.3 °F 40% 30.21 in 10.0 mi WNW 10.4 mph 19.6 mph N/A   Clear
2:55 PM 31.5 °F 22.3 °F 9.9 °F 41% 30.21 in 10.0 mi NW 11.5 mph 21.9 mph N/A   Clear
3:15 PM 31.5 °F 24.2 °F 9.9 °F 41% 30.21 in 10.0 mi WNW 8.1 mph 18.4 mph N/A   Clear
3:35 PM 31.3 °F 22.7 °F 10.2 °F 42% 30.21 in 10.0 mi West 10.4 mph 19.6 mph N/A   Clear
3:55 PM 31.8 °F 22.3 °F 11.3 °F 43% 30.21 in 10.0 mi NNW 12.7 mph 18.4 mph N/A   Clear
4:15 PM 31.6 °F 22.6 °F 11.1 °F 43% 30.21 in 10.0 mi WNW 11.5 mph 19.6 mph N/A   Clear
4:35 PM 32.0 °F 23.6 °F 11.1 °F 42% 30.21 in 10.0 mi WNW 10.4 mph 17.3 mph N/A   Clear
5:15 PM 32.0 °F 23.6 °F 10.9 °F 42% 30.22 in 10.0 mi WNW 10.4 mph 18.4 mph N/A   Clear
5:35 PM 32.0 °F 24.2 °F 10.0 °F 40% 30.22 in 10.0 mi WNW 9.2 mph - N/A   Clear
5:55 PM 31.8 °F 21.8 °F 10.8 °F 42% 30.22 in 10.0 mi West 13.8 mph 18.4 mph N/A   Clear
6:15 PM 31.3 °F 23.3 °F 10.6 °F 42% 30.23 in 10.0 mi West 9.2 mph 17.3 mph N/A   Clear
6:35 PM 31.1 °F 21.9 °F 10.9 °F 43% 30.23 in 10.0 mi West 11.5 mph 19.6 mph N/A   Clear
6:55 PM 30.6 °F 23.8 °F 11.3 °F 45% 30.24 in 10.0 mi West 6.9 mph - N/A   Clear
7:15 PM 30.0 °F 23.2 °F 11.3 °F 46% 30.25 in 10.0 mi West 6.9 mph - N/A   Clear
7:35 PM 28.4 °F 21.2 °F 10.4 °F 47% 30.25 in 10.0 mi West 6.9 mph - N/A   Clear
7:55 PM 28.8 °F 22.6 °F 12.2 °F 50% 30.25 in 10.0 mi West 5.8 mph - N/A   Clear
8:15 PM 28.4 °F 22.2 °F 12.7 °F 52% 30.25 in 10.0 mi West 5.8 mph - N/A   Clear
8:35 PM 28.0 °F 22.8 °F 12.9 °F 53% 30.26 in 10.0 mi West 4.6 mph - N/A   Clear
8:55 PM 27.9 °F 21.5 °F 12.2 °F 52% 30.26 in 10.0 mi West 5.8 mph - N/A   Clear
9:15 PM 27.5 °F 21.1 °F 12.2 °F 53% 30.27 in 10.0 mi West 5.8 mph - N/A   Clear
9:35 PM 27.0 °F 21.6 °F 12.2 °F 54% 30.27 in 10.0 mi West 4.6 mph - N/A   Clear
9:55 PM 26.6 °F 20.0 °F 12.0 °F 54% 30.28 in 10.0 mi West 5.8 mph - N/A   Clear
10:15 PM 26.1 °F 21.9 °F 12.2 °F 56% 30.28 in 10.0 mi WNW 3.5 mph - N/A   Clear
10:35 PM 25.9 °F 21.7 °F 12.2 °F 56% 30.29 in 10.0 mi WNW 3.5 mph - N/A   Clear
10:55 PM 25.7 °F 21.5 °F 11.3 °F 55% 30.30 in 10.0 mi WNW 3.5 mph - N/A   Clear
11:35 PM 25.3 °F 21.1 °F 10.6 °F 54% 30.30 in 10.0 mi WNW 3.5 mph - N/A   Clear
11:55 PM 25.0 °F 18.1 °F 10.4 °F 54% 30.29 in 10.0 mi NW 5.8 mph - N/A   Clear